Regional Weather Roundup
Issued by NWS

Home | Current Version | Previous Version | Graphics & Text | Print | Product List | Glossary On
Versions: 1 2 3 4 5 6 7 8 9 10 11 12 13 14 15 16 17 18 19 20 21 22 23 24 25 26 27 28 29 30 31 32 33 34 35 36 37 38 39 40 41 42 43 44 45 46 47 48 49 50
000
ASUS43 KLOT 251406
RWRIL

ILLINOIS REGIONAL WEATHER ROUNDUP
NATIONAL WEATHER SERVICE CHICAGO/ROMEOVILLE IL
900 AM CDT SAT OCT 25 2014

NOTE: "FAIR" INDICATES FEW OR NO CLOUDS BELOW 12,000 FEET WITH NO
SIGNIFICANT WEATHER AND/OR OBSTRUCTIONS TO VISIBILITY.

* THESE STATIONS ARE NOT UNDER NWS QUALITY CONTROL. THEY ALSO MAY NOT
  REPORT WEATHER SUCH AS PRECIPITATION OR FOG.

ILZ001-002-007-009-015-016-024-251500-
NORTHWEST ILLINOIS

CITY           SKY/WX    TMP DP  RH WIND       PRES   REMARKS
MOLINE         SUNNY     55  52  89 W3        30.01R FOG
STERLING*      CLOUDY    57  54  88 W7        30.00R
SAVANNA*       SUNNY     57  53  84 W3        29.99R
$$

ILZ003-004-008-010-011-017-018-251500-
NORTH CENTRAL ILLINOIS

CITY           SKY/WX    TMP DP  RH WIND       PRES   REMARKS
ROCKFORD       SUNNY     55  54  96 W5        29.98R FOG
FREEPORT*      SUNNY     54  52  93 W5        29.99R FOG
ROCHELLE*      FOG       55  55 100 W3        29.98R VSB 1/2
DE KALB*       CLOUDY    55  54  97 W12       29.97R FOG
PERU*          CLOUDY    57  56  97 W8        29.99R FOG
$$

ILZ005-006-012>014-019>023-251500-
NORTHEAST ILLINOIS

CITY           SKY/WX    TMP DP  RH WIND       PRES   REMARKS
CHICAGO-OHARE  MOSUNNY   59  54  83 W9        29.92R FOG
CHICAGO-MIDWAY MOSUNNY   61  56  83 W10       29.93R
AURORA         FOG       56  53  90 W9        29.96R VSB 3/4
LANSING*       CLOUDY    57  55  94 SW6       29.94S FOG
JOLIET*        PTSUNNY   57  55  94 W8        29.96R FOG
WAUKEGAN       SUNNY     58  52  80 W9        29.91R
DUPAGE AIRPORT SUNNY     58  54  86 W6        29.94R FOG
KANKAKEE*      CLOUDY    56  55  94 W7        29.97R FOG
WHEELING       SUNNY     61  53  75 NW13      29.94R
MORRIS*        CLOUDY    57  57  97 W9        29.96R FOG
ROMEOVILLE*    MOSUNNY   58  57  96 W10       29.96R FOG
NORTHERLY ISL    N/A     59  54  83 W9          N/A
$$

LMZ740>746-251500-
SOUTHERN LAKE MICHIGAN

STATION/POSITION SKY/WX   TEMP    WIND        PRES    VSBY  WAVE
                          AIR SEA DIR/SP/G                  HT/PER
                          (F)     (DEG/KT/KT) (MB)    (MI)  (FT/S)
SOUTHERN BUOY              56 54  260/ 12/ 14 1011.8R         1/ 3
WAUKEGAN HARBOR            59     290/ 13/ 22   N/A
HARRISON CRIB              58     260/ 13/ 15   N/A
BURNHAM HARBOR             60     280/ 11/ 12   N/A
CALUMET HARBOR             59     240/  5/  8 1012.0R
MICHIGAN CITY              55     210/ 13/ 15   N/A
$$

ILZ025>027-034>036-040-047-049-050-058-095>099-251500-
WEST-CENTRAL ILLINOIS

CITY           SKY/WX    TMP DP  RH WIND       PRES   REMARKS
QUINCY         FOG       55  55 100 CALM      30.03R VSB<1/4
GALESBURG*     FOG       51  51 100 W3        30.02R VSB<1/4
MACOMB*        FOG       52  52 100 W6        30.05R VSB 1/4
PITTSFIELD*    FOG       60  58  94 W6        30.04S VSB<1/4
$$

ILZ028>032-037-038-041>044-048-051>054-059>061-251500-
CENTRAL ILLINOIS

CITY           SKY/WX    TMP DP  RH WIND       PRES   REMARKS
PONTIAC        CLOUDY    58  57  97 W7        29.99R FOG
BLOOMINGTON    FOG       56  56 100 W8        30.01R VSB 1/8
DECATUR        PTSUNNY   60  58  92 NW8       30.01S FOG
PEORIA         FOG       55  53  93 W5        30.01R VSB 1/8
LACON*         FOG       56  55  97 W3        30.00R VSB 1/4
LINCOLN*       CLOUDY    59  58  96 CALM      29.99S FOG
SPRINGFIELD    CLOUDY    61  58  90 SW5       30.02R FOG
TAYLORVILLE    CLOUDY    59  57  94 W3        30.03R
$$

ILZ033-039-045-046-055>057-062-063-251500-
EAST-CENTRAL ILLINOIS

CITY           SKY/WX    TMP DP  RH WIND       PRES   REMARKS
CHAMPAIGN      SUNNY     56  54  93 W7        30.00R
DANVILLE*      SUNNY     57  54  89 W5        29.96R FOG
RANTOUL*       SUNNY     57  54  89 W10       29.99R FOG
MATTOON        SUNNY     59  56  89 W8        30.00R
PARIS*         SUNNY     58  55  91 W6        30.01R
$$

ILZ079-100>102-251500-
SOUTHWEST ILLINOIS

CITY           SKY/WX    TMP DP  RH WIND       PRES   REMARKS
ALTON          SUNNY     61  61 100 W6        30.04R FOG
CAHOKIA*       SUNNY     63  60  90 SW3       30.04R
SPARTA*        SUNNY     61  58  89 W3        30.06R
$$

ILZ064>066-069>071-074>076-080>082-084>086-088>090-092>094-251500-
SOUTH-CENTRAL ILLINOIS

CITY           SKY/WX    TMP DP  RH WIND       PRES   REMARKS
CARBONDALE     PTSUNNY   63  58  83 W5        30.05R
CAIRO*         SUNNY     62  57  84 SW5       30.06R
EFFINGHAM*     SUNNY     61  55  83 W5        30.02R
MARION         PTSUNNY   63  59  88 SW6       30.05R
MT. VERNON     SUNNY     57  55  94 W3        30.05R
CENTRALIA*     SUNNY     60  56  85 W5        30.04R
SALEM*         SUNNY     61  58  92 W3        30.03S
METROPOLIS*    SUNNY     60  58  93 CALM      30.05R
$$

ILZ067-068-072-073-078-083-087-091-251500-
SOUTHEAST ILLINOIS

CITY           SKY/WX    TMP DP  RH WIND       PRES   REMARKS
LAWRENCEVILLE  SUNNY     61  57  87 W6        30.02R
FLORA*         SUNNY     61  57  87 W5        30.03R
FAIRFIELD*     SUNNY     61  57  86 CALM      30.02R
HARRISBURG*    PTSUNNY   58  58 100 CALM      30.04S
ROBINSON*      SUNNY     62  58  86 W8        30.02R
CARMI*         SUNNY     62  59  91 CALM      30.02S
$$

ABBREVIATIONS USED IN REMARKS
   TC - TEMPERATURE IN CELSIUS
  WCI - WIND CHILL INDEX
   HX - HEAT INDEX
  VSB - VISIBILITY
$$




USA.gov is the U.S. government's official web portal to all federal, state and local government web resources and services.